Location: Hopville
(44.8032°N, 123.1329°W)
Time: 17:28:05
(UTC+00:00)

CZ-2C R/B - Pass Details

Date: 24 January 2021
Orbit: 390 x 584 km, 35.0° (Epoch: 28 February)

Event Time Altitude Azimuth Distance (km) Brightness Sun altitude
Exits shadow 14:27:22 - 236° (SW) 1,894 3.7 -12.8°
Reaches altitude 10° 14:27:38 10° 234° (SW) 1,816 3.6 -12.8°
Maximum altitude 14:30:42 20° 187° (S) 1,269 3.3 -12.3°
Drops below altitude 10° 14:33:40 10° 139° (SE) 1,734 4.8 -11.8°
Sets 14:36:15 0° 122° (ESE) 2,576 6.4 -11.3°
